Location: *
(58.7167°N, 26.1833°E)
Time: 07:32:36
(UTC+00:00)

Cosmos 1674 - Pass Details

Date: 25 August 2019
Orbit: 495 x 520 km, 82.5° (Epoch: 17 October)

Event Time Altitude Azimuth Distance (km) Brightness Sun altitude
Rises 22:06:12 0° 343° (NNW) 2,653 7.7 -20.6°
Reaches altitude 10° 22:08:25 10° 336° (NNW) 1,757 6.4 -20.7°
Maximum altitude 22:12:04 42° 265° (W) 750 3.4 -20.7°
Enters shadow 22:12:21 41° 252° (WSW) 760 3.3 -20.7°
